This demonstration page uses our WeatherBlox Daily Observations layout. Learn more.

Left ArrowRight Arrow

36.19886, -115.1175

Hourly Observations for May 26, 2022

Temp ( °F °C ) Dew Point ( °F °C ) Humidity (%) Winds ( mph kmh ) Pressure ( in mb ) Visibility ( mi km ) Precip ( " mm )
12:53 am 00:53 Clear 80 26.7 32 0 17 17 SW 7 11 29.78 1009 10 16 0.00 0.00
1:53 am 01:53 Clear 79 26.1 31 -0.6 17 17 W 5 7 29.78 1008 10 16 0.00 0.00
2:53 am 02:53 Clear 77 25 29 -1.7 17 17 Calm 29.78 1008 10 16 0.00 0.00
3:53 am 03:53 Clear 74 23.3 31 -0.6 20 20 WNW 6 9 29.79 1009 10 16 0.00 0.00
4:53 am 04:53 Clear 74 23.3 27 -2.8 17 17 NW 6 9 29.80 1009 10 16 0.00 0.00
5:53 am 05:53 Sunny 74 23.3 28 -2.2 18 18 NW 6 9 29.82 1010 10 16 0.00 0.00
6:53 am 06:53 Sunny 77 25 29 -1.7 17 17 N 7 11 29.83 1010 10 16 0.00 0.00
7:53 am 07:53 Sunny 84 28.9 30 -1.1 14 14 ENE 5 7 29.85 1011 10 16 0.00 0.00
8:53 am 08:53 Sunny 87 30.6 32 0 14 14 E 6 9 29.87 1012 10 16 0.00 0.00
9:53 am 09:53 Sunny 91 32.8 30 -1.1 11 11 ESE 6 9 29.87 1012 10 16 0.00 0.00
10:53 am 10:53 Sunny 94 34.4 30 -1.1 10 10 SE 8 13 29.86 1011 10 16 0.00 0.00
11:53 am 11:53 Sunny 98 36.7 31 -0.6 9 9 undefined N/A 29.84 1011 10 16 0.00 0.00
12:53 pm 12:53 Sunny 101 38.3 26 -3.3 7 7 SSE 8 13 29.80 1009 10 16 0.00 0.00
1:53 pm 13:53 Sunny 102 38.9 25 -3.9 6 6 S 15 24 29.78 1009 10 16 0.00 0.00
2:53 pm 14:53 Sunny 102 38.9 27 -2.8 7 7 S 21 33 29.76 1008 10 16 0.00 0.00
3:53 pm 15:53 Sunny 102 38.9 25 -3.9 6 6 SSW 17 28 29.75 1007 10 16 0.00 0.00
4:53 pm 16:53 Sunny 101 38.3 24 -4.4 6 6 SSE 17 28 29.73 1007 10 16 0.00 0.00
5:53 pm 17:53 Sunny 100 37.8 24 -4.4 7 7 S 14 22 29.73 1007 10 16 0.00 0.00
6:53 pm 18:53 Sunny 98 36.7 24 -4.4 7 7 SSW 16 26 29.73 1007 10 16 0.00 0.00
7:53 pm 19:53 Clear 96 35.6 29 -1.7 9 9 SSW 7 11 29.74 1007 10 16 0.00 0.00
8:53 pm 20:53 Clear 94 34.4 30 -1.1 10 10 SW 9 15 29.75 1008 10 16 0.00 0.00
9:53 pm 21:53 Clear 93 33.9 28 -2.2 10 10 S 12 19 29.77 1008 10 16 0.00 0.00
10:53 pm 22:53 Clear 91 32.8 27 -2.8 10 10 S 14 22 29.78 1009 10 16 0.00 0.00
11:53 pm 23:53 Clear 89 31.7 28 -2.2 11 11 S 8 13 29.79 1009 10 16 0.00 0.00

Powered by AerisWeather